﻿Дата;RedTram;AdRiver;UBN;Google
2015-04-22;1;0;0;0
2015-02-05;1;0;0;0
2015-01-30;1;0;0;0
2015-01-18;1;0;0;0
2015-01-06;1;0;0;0
2015-01-02;1;0;0;0
2014-12-30;1;0;0;0
2014-12-29;1;0;0;0
2014-12-28;4;0;0;0
2014-12-24;2;0;0;0
2014-12-22;1;0;0;0
2014-12-07;1;0;0;0
2014-11-27;2;0;0;0
2014-11-21;1;0;0;0
2014-11-15;1;0;0;0
2014-10-25;1;0;0;0
2014-10-13;1;0;0;0
2014-10-11;1;0;0;0
2014-10-05;1;0;0;0
2014-10-03;1;0;0;0
2014-10-01;1;0;0;0
2014-09-29;1;0;0;0
2014-09-28;1;0;0;0
2014-09-02;1;0;0;0
2014-08-31;1;0;0;0
2014-08-20;1;0;0;0
2014-07-29;1;0;0;0
2014-07-12;1;0;0;0
2014-07-09;1;0;0;0
2014-07-08;1;0;0;0
2014-07-06;1;0;0;0
2014-06-17;1;0;0;0
2014-06-09;1;0;0;0
2014-05-31;1;0;0;0
2014-05-30;1;0;0;0
2014-05-17;1;0;0;0
2014-05-14;1;0;0;0
2014-05-12;1;0;0;0
2014-05-07;0;1;0;0
2014-05-06;1;0;0;0
2014-05-04;1;0;0;0
2014-05-02;1;0;0;0
2014-04-30;1;0;0;0
2014-04-26;3;0;0;0
2014-04-23;1;0;0;0
2014-04-21;1;0;0;0
2014-04-20;1;0;0;0
2014-04-18;1;0;0;0
2014-04-16;1;0;0;0
2014-04-10;1;0;0;0
2014-03-24;1;0;0;0
2014-03-23;1;0;0;0
2014-03-16;1;0;0;0
2014-03-02;1;0;0;0
2014-02-14;1;0;0;0
2014-02-11;2;0;0;0
2014-02-08;1;0;0;0
2014-02-06;2;0;0;0
2014-02-04;1;0;0;0
2014-02-03;1;0;0;0
2014-01-31;1;0;0;0
2014-01-30;1;0;0;0
2014-01-28;1;0;0;0
2014-01-23;1;0;0;0
2014-01-21;1;0;0;0
2014-01-16;1;0;0;0
2014-01-11;1;0;0;0
2014-01-10;2;0;0;0
2014-01-08;2;0;0;0
2014-01-05;2;0;0;0
2014-01-03;1;0;0;0
2014-01-02;1;0;0;0
2013-12-30;1;0;0;0
2013-12-10;1;0;0;0
2013-12-09;3;0;0;0
2013-12-07;1;0;0;0
2013-12-05;1;0;0;0
2013-12-04;1;0;0;0
2013-12-03;0;1;0;0
2013-11-28;1;0;0;0
2013-11-27;1;0;0;0
2013-11-25;2;0;0;0
2013-11-22;1;0;0;0
2013-11-21;2;0;0;0
2013-11-20;1;0;0;0
2013-11-18;1;0;0;0
2013-11-17;2;0;0;0
2013-11-16;6;0;0;0
2013-11-15;1;0;0;0
2013-11-14;1;0;0;0
2013-11-13;2;0;0;0
2013-11-11;1;0;0;0
2013-11-08;4;0;0;0
2013-11-07;1;0;0;0
2013-11-06;1;0;0;0
2013-11-01;2;0;0;0
2013-10-29;1;0;0;0
2013-10-28;1;2;0;0
2013-10-22;1;0;0;0
2013-10-21;3;0;0;0
2013-10-19;1;0;0;0
2013-10-17;4;0;0;0
2013-10-16;3;0;0;0
2013-10-15;2;0;0;0
2013-10-14;1;0;0;0
2013-10-13;2;0;0;0
2013-10-12;2;0;0;0
2013-10-11;2;0;0;0
2013-10-10;5;0;0;0
2013-10-09;5;0;0;0
2013-10-08;4;1;0;0
2013-10-07;3;0;0;0
2013-10-06;5;0;0;0
2013-10-05;4;0;0;0
2013-10-04;1;0;0;0
2013-10-03;6;0;0;0
2013-10-02;3;0;0;0
2013-10-01;1;0;0;0
2013-09-30;3;0;0;0
2013-09-29;0;0;0;1
2013-09-27;2;0;0;0
2013-09-24;1;0;0;0
2013-09-23;1;0;0;0
2013-09-21;1;0;0;0
2013-09-20;1;0;0;0
2013-09-19;2;0;0;0
2013-09-16;1;0;0;0
2013-09-10;2;0;0;0
2013-09-03;1;0;0;0
2013-08-31;1;0;0;0
2013-08-18;1;0;0;0
2013-08-16;1;0;0;0
2013-08-15;1;1;0;0
2013-08-13;0;1;0;0
2013-08-12;1;0;0;0
2013-08-10;3;0;0;0
2013-08-07;1;0;0;0
2013-08-06;1;0;0;0
2013-08-04;1;0;0;0
2013-08-03;1;0;0;0
2013-08-01;1;0;0;0
2013-07-30;2;0;0;0
2013-07-26;2;0;0;0
2013-07-25;1;0;0;0
2013-07-24;0;1;0;0
2013-07-23;1;0;0;0
2013-07-13;1;0;0;0
2013-07-11;0;1;0;0
2013-07-09;1;0;0;0
2013-07-08;2;0;0;0
2013-07-05;1;0;0;0
2013-07-01;1;0;0;0
2013-06-30;0;1;0;0
2013-06-27;1;0;0;0
2013-06-25;1;0;0;0
2013-06-23;1;0;0;0
2013-06-20;1;0;0;0
2013-06-19;1;0;0;0
2013-06-18;0;1;0;0
2013-06-17;1;0;0;0
2013-06-13;1;0;0;0
2013-06-09;1;0;0;0
2013-05-24;1;0;0;0
2013-05-22;1;0;0;0
2013-05-21;1;0;0;0
2013-05-20;1;0;0;0
2013-05-13;1;0;0;0
2013-05-12;1;0;0;0
2013-05-09;1;0;0;0
2013-05-08;2;0;0;0
2013-05-05;1;0;0;0
2013-05-04;1;0;0;0
2013-05-02;1;0;0;0
2013-04-29;1;0;0;0
2013-04-22;2;0;0;0
2013-04-21;2;0;0;0
2013-04-20;1;0;0;0
2013-04-10;1;0;0;0
2013-03-31;1;0;0;0
2013-03-28;0;1;0;0
2013-03-26;1;0;0;0
2013-03-25;1;0;0;0
2013-03-23;1;0;0;0
2013-03-21;1;0;0;0
2013-01-04;4;0;0;0
2013-01-03;139;0;0;0
2013-01-02;86;0;0;0
2013-01-01;40;0;0;0
2012-12-31;127;0;0;0
2012-12-30;112;0;0;0
2012-12-29;96;0;0;0
2012-12-28;55;0;0;0
2012-12-27;149;0;0;0
2012-12-26;140;0;0;0
2012-12-25;130;0;0;0
2012-12-24;151;0;0;0
2012-12-23;137;0;0;0
2012-12-22;95;0;0;0
2012-12-21;234;0;0;0
2012-12-20;235;0;0;0
2012-12-19;231;0;0;0
2012-12-18;169;0;0;0
2012-12-17;149;0;0;0
2012-12-16;72;0;0;0
2012-12-15;37;0;0;0
2012-12-14;169;0;0;0
2012-12-13;139;0;0;0
2012-12-12;93;0;0;0
2012-12-11;62;0;0;0
2012-12-10;80;0;0;0
2012-12-09;114;0;0;0
2012-12-08;44;0;0;0
2012-12-07;267;0;0;0
2012-12-06;175;0;0;0
2012-12-05;93;0;0;0
2012-12-04;204;0;0;0
2012-12-03;124;0;0;0
2012-12-02;67;0;0;0
2012-12-01;39;0;0;0
2012-11-30;61;0;0;0
2012-11-29;114;0;0;0
2012-11-28;52;0;0;0
2012-11-27;95;0;0;0
2012-11-26;51;0;0;0
2012-11-25;137;0;0;0
2012-11-24;35;0;0;0
2012-11-23;119;0;0;0
2012-11-22;88;0;0;0
2012-11-21;111;0;0;0
2012-11-20;15;0;0;0
2012-11-19;119;0;0;0
2012-11-18;102;0;0;0
2012-11-17;222;0;0;0
2012-11-16;380;0;0;0
2012-11-15;228;0;0;0
2012-11-14;284;0;0;0
2012-11-13;234;0;0;0
2012-11-12;491;0;0;0
2012-11-11;296;0;0;0
2012-11-10;244;0;0;0
2012-11-09;157;0;0;0
2012-11-08;91;0;0;0
2012-11-07;50;0;0;0
2012-11-06;68;0;0;0
2012-11-05;126;0;0;0
2012-11-04;106;0;0;0
2012-11-03;78;0;0;0
2012-11-02;70;0;0;0
2012-11-01;56;0;0;0
2012-10-31;74;0;0;0
2012-10-30;49;0;0;0
2012-10-29;28;0;0;0
2012-10-28;19;0;0;0
2012-10-27;56;0;0;0
2012-10-26;56;0;0;0
2012-10-25;76;0;0;0
2012-10-24;38;0;0;0
2012-10-23;70;0;0;0
2012-10-22;96;0;0;0
2012-10-21;87;0;0;0
2012-10-20;49;0;0;0
2012-10-19;177;0;0;0
2012-10-18;93;0;0;0
2012-10-17;110;0;0;0
2012-10-16;47;0;0;0
2012-10-15;76;0;0;0
2012-10-14;129;0;0;0
2012-10-13;14;0;0;0
2012-10-12;45;0;0;0
2012-10-11;154;0;0;0
2012-10-10;127;0;0;0
2012-10-09;64;0;0;0
2012-10-08;162;0;0;0
2012-10-07;48;0;0;0
2012-10-06;85;0;0;0
2012-10-05;39;0;0;0
2012-10-04;136;0;0;0
2012-10-03;67;0;0;0
2012-10-02;86;0;0;0
2012-10-01;20;0;0;0
2012-09-30;22;0;0;0
2012-09-29;35;0;0;0
2012-09-28;25;0;0;0
2012-09-27;30;0;0;0
2012-09-26;128;0;0;0
2012-09-25;98;0;0;0
2012-09-24;103;0;0;0
2012-09-23;52;0;0;0
2012-09-22;45;0;0;0
2012-09-21;62;0;0;0
2012-09-20;17;0;0;0
2012-09-19;37;0;0;0
2012-09-18;38;0;0;0
2012-09-17;103;0;0;0
2012-09-16;68;0;0;0
2012-09-15;44;0;0;0
2012-09-14;60;0;0;0
2012-09-13;249;0;0;0
2012-09-12;181;0;0;0
2012-09-11;182;0;0;0
2012-09-10;164;0;0;0
2012-09-09;356;0;0;0
2012-09-08;198;0;0;0
2012-09-07;106;0;0;0
2012-09-06;84;0;0;0
2012-09-05;83;0;0;0
2012-09-04;126;0;0;0
2012-09-03;91;0;0;0
2012-09-02;48;0;0;0
2012-09-01;55;0;0;0
2012-08-31;127;0;0;0
2012-08-30;64;0;0;0
2012-08-29;17;0;0;0
2012-08-28;87;0;0;0
2012-08-27;73;0;0;0
2012-08-26;34;0;0;0
2012-08-25;44;0;0;0
2012-08-24;79;0;0;0
2012-08-23;68;0;0;0
2012-08-22;55;0;0;0
2012-08-21;11;0;0;0
2012-08-20;67;0;0;0
2012-08-19;78;0;0;0
2012-08-18;19;0;0;0
2012-08-17;57;0;0;0
2012-08-16;93;0;0;0
2012-08-15;51;0;0;0
2012-08-14;59;0;0;0
2012-08-13;73;0;0;0
2012-08-12;17;0;0;0
2012-08-11;83;0;0;0
2012-08-10;56;0;0;0
2012-08-09;59;0;0;0
2012-08-08;68;0;0;0
2012-08-07;64;0;0;0
2012-08-06;55;0;0;0
2012-08-05;17;0;0;0
2012-08-04;36;0;0;0
2012-08-03;2;0;0;0
2012-08-02;38;0;0;0
2012-08-01;23;0;0;0
2012-07-31;33;0;0;0
2012-07-30;12;0;0;0
2012-07-29;58;0;0;0
2012-07-28;26;0;0;0
2012-07-27;106;0;0;0
2012-07-26;60;0;0;0
2012-07-25;126;0;0;0
2012-07-24;91;0;0;0
2012-07-23;82;0;0;0
2012-07-22;48;0;0;0
2012-07-21;25;0;0;0
2012-07-20;108;0;0;0
2012-07-19;129;0;0;0
2012-07-18;206;0;0;0
2012-07-17;247;0;0;0
2012-07-16;145;0;0;0
2012-07-15;75;0;0;0
2012-07-14;114;0;0;0
2012-07-13;103;0;0;0
2012-07-12;187;0;0;0
2012-07-11;102;0;0;0
2012-07-10;247;0;0;0
2012-07-09;259;0;0;0
2012-07-08;102;0;0;0
2012-07-07;199;0;0;0
2012-07-06;187;0;0;0
2012-07-05;121;0;0;0
2012-07-04;162;0;0;0
2012-07-03;41;0;0;0
2012-07-02;4;0;0;0
2012-07-01;32;0;0;0
2012-06-30;22;0;0;0
2012-06-29;24;0;0;0
2012-06-28;4;0;0;0
2012-06-27;3;0;0;0
2012-06-26;138;0;0;0
2012-06-25;60;0;0;0
2012-06-24;25;0;0;0
2012-06-23;50;0;0;0
2012-06-22;8;0;0;0
2012-06-21;15;0;0;0
2012-06-20;39;0;0;0
2012-06-19;43;0;0;0
2012-06-18;106;0;0;0
2012-06-17;121;0;0;0
2012-06-16;61;0;1;0
2012-06-15;69;0;1;0
2012-06-14;109;0;0;0
2012-06-13;128;0;2;0
2012-06-12;67;0;2;0
2012-06-11;142;0;1;0
2012-06-10;107;0;3;0
2012-06-09;79;0;0;0
2012-06-08;5;0;0;0
